ONEWEB-0653, 55815

Orbit data source: Space-Track

ONEWEB-0653, 55815 is a payload satellite owned by One Web (NAA) (UK) in LEO that was launched on Thu, 09 Mar 2023 UTC via an FALCON 9 launch vehicle from the Air Force Eastern Test Range (AFETR). Payload-class satellites include a variety of spacecraft equipped with specific instruments for various scientific and technological missions. These include communications satellites like Starlink; space stations such as the ISS; scientific satellites like the Hubble; Earth observation satellites from companies like Planet Labs, Umbra, and HawkEye 360; GPS; miniature CubeSats for education and research; and military/defense satellites.

Loading next visibility...
Identifier
55815, 2023-029V
Orbit
LEO
Country
Flag of UKUK
Related business
Manufacturer
One Web
Mission
Operational Commercial Communications
Bus & Motor
ARROW, Unknown motor
Mass
148 kg wet, ~140 kg dry
Launch date (UTC)
2023-03-09 (3 years ago)
Launch vehicle
FALCON 9
Launch site
Air Force Eastern Test Range (AFETR)
Object type
Payload
Rocket body
Debris
Shape & HBR
Trap Box + 2 Pan, 6.7 m
Radar Cross Section
3.464 m², Large (>1 m²)

Expand to show TLE details & history
Last TLE update: 2 days ago

TLE from 2 days ago
0 ONEWEB-0653
1 55815U 23029V   26171.35055253 -.00000171  00000-0 -49444-3 0  9994
2 55815  87.8968 289.0778 0001900  98.1808 261.9537 13.14503523159811
Epoch: 2026-06-20T08:24Z
TLE epoch observation values (Epoch: 2026-06-20T08:24:47.738Z)
Latitude
-0.00006°
Longitude
-105.68754°
Altitude
1,208.883 km
Speed
7.25 km/s
True Right ascension
19h 16m 18s
True Declination
0° 00' 00"
Sunlit
Object was in full shadow at epoch
Visualization orbit readout
Latitude
Unknown
Longitude
Unknown
Altitude
Unknown
Speed
Unknown
Apparent Right ascension
Unknown
Apparent Declination
Unknown
Sunlit
N/A
Visualization observer readout
Local Sidereal Time
23:20:02
Azimuth
Unknown
Elevation
Unknown
Doppler factor
Unknown
Orbital elements
Apogee altitude
1,204.342 km
Perigee altitude
1,201.461 km
Semi-major axis
7,581.038 km
Eccentricity
0.00019
Inclination
87.8968°
RAAN
289.0778°
Arg. of periapsis
98.1808°
True anomaly
261.93214°
Mean anomaly
261.9537°
Eccentric anomaly
261.94292°
Mean motion
3.28814 °/min
Orbital period
109.48 mins
BSTAR
-0.00049444
Loading maneuver chart data...
Computing Atmospheric mass density...
Loading historical data...
Loading historical data...
Loading historical data...
Loading historical data...
Loading historical data...
Loading historical data...
Loading historical data...

Documentation

Showing up to 5 results
|